This demonstration page uses our WeatherBlox Daily Observations layout. Learn more.

Hourly Observations for March 23, 2017

Temp ( °F °C ) Dew Point ( °F °C ) Humidity (%) Winds ( mph kmh ) Pressure ( in mb ) Visibility ( mi km ) Precip ( " mm )
12:15 am 00:15 Clear 46 8 32 0 57 57 SSE 15 24 30.03 1017 10 16.0934 0 0
12:35 am 00:35 Clear 46 7.7 32 0 59 59 SSE 12 19 30.03 1017 10 16.0934 0 0
12:55 am 00:55 Clear 44 6.8 31 -0.5 60 60 SSE 10 17 30.03 1017 10 16.0934 0 0
1:15 am 01:15 Clear 44 6.5 31 -0.8 60 60 SSE 13 20 30 1016 10 16.0934 0 0
1:35 am 01:35 Clear 43 6.1 29 -1.5 59 59 SSE 12 19 30 1016 10 16.0934 0 0
1:55 am 01:55 Clear 43 5.9 29 -1.7 59 59 SE 10 17 30 1016 10 16.0934 0 0
2:15 am 02:15 Clear 43 6.2 29 -1.5 58 58 SE 13 20 30 1016 10 16.0934 0 0
2:35 am 02:35 Clear 43 6.2 29 -1.5 58 58 SE 12 19 29.97 1015 10 16.0934 0 0
2:55 am 02:55 Clear 43 6.3 30 -1.3 59 59 SE 9 15 29.97 1015 10 16.0934 0 0
3:15 am 03:15 Clear 43 6.1 30 -1.2 60 60 SE 12 19 29.97 1015 10 16.0934 0 0
3:35 am 03:35 Clear 44 6.4 31 -0.6 61 61 SE 13 20 29.94 1014 10 16.0934 0 0
3:55 am 03:55 Partly Cloudy 45 7.2 32 0.1 61 61 SE 16 26 29.94 1014 10 16.0934 0 0
4:15 am 04:15 Mostly Cloudy 46 7.7 33 0.5 61 61 SSE 17 28 29.91 1013 10 16.0934 0 0
4:35 am 04:35 Cloudy 47 8.1 34 1.2 62 62 SSE 17 28 29.85 1011 10 16.0934 0 0
4:55 am 04:55 Cloudy 47 8.6 36 2.1 64 64 SSE 20 31 29.85 1011 10 16.0934 0 0
5:15 am 05:15 Cloudy 48 8.8 37 2.7 66 66 SSE 18 30 29.85 1011 10 16.0934 0 0
5:35 am 05:35 Cloudy 48 9 38 3.1 67 67 SSE 18 30 29.83 1010 10 16.0934 0 0
5:55 am 05:55 Cloudy 48 9 38 3.5 69 69 SSE 18 30 29.83 1010 10 16.0934 0 0
6:15 am 06:15 Cloudy 48 9.1 40 4.4 73 73 SSE 18 30 29.83 1010 10 16.0934 0 0
6:35 am 06:35 Cloudy 48 9 40 4.7 75 75 SSE 22 35 29.83 1010 10 16.0934 0 0
6:55 am 06:55 Cloudy 48 8.7 41 5 78 78 SSE 18 30 29.83 1010 10 16.0934 0 0
7:15 am 07:15 Cloudy 47 8.5 42 5.5 82 82 SSE 21 33 29.83 1010 7 11.26538 0 0
7:35 am 07:35 Cloudy 47 8.3 43 6.1 86 86 SSE 17 28 29.8 1009 7 11.26538 0 0
7:55 am 07:55 Cloudy with Mist and Fog 47 8.1 44 6.7 91 91 SSE 15 24 29.8 1009 4 6.43736 0 0
8:15 am 08:15 Cloudy with Mist and Fog 47 8.4 45 7.4 94 94 SSE 18 30 29.8 1009 1.75 2.816345 0 0
8:35 am 08:35 Cloudy with Mist and Fog 47 8.6 46 7.8 95 95 SSE 17 28 29.8 1009 1 1.60934 0 0
8:55 am 08:55 Cloudy with Mist and Fog 48 8.7 46 8 95 95 SSE 18 30 29.8 1009 1 1.60934 0 0
9:15 am 09:15 Cloudy with Mist and Fog 48 9.1 47 8.5 96 96 SSE 17 28 29.8 1009 1 1.60934 0 0
9:35 am 09:35 Cloudy with Mist and Fog 49 9.3 48 8.7 96 96 SSE 18 30 29.8 1009 1.25 2.011675 0 0
9:55 am 09:55 Cloudy with Mist and Fog 49 9.7 48 9.1 96 96 SSE 20 31 29.8 1009 1 1.60934 0 0
10:15 am 10:15 Cloudy with Mist and Fog 50 10 49 9.5 97 97 SSE 16 26 29.8 1009 1 1.60934 0 0
10:35 am 10:35 Cloudy with Mist and Fog 50 10.1 49 9.5 96 96 SSE 20 31 29.77 1008 0.75 1.207005 0 0
10:55 am 10:55 Cloudy with Fog 50 10.1 49 9.5 96 96 SSE 16 26 29.77 1008 0.5 0.80467 0 0
11:15 am 11:15 Cloudy with Fog 51 10.4 50 9.9 97 97 SSE 20 31 29.74 1007 0.5 0.80467 0 0
11:35 am 11:35 Cloudy with Mist and Fog 51 10.8 51 10.3 97 97 SSE 21 33 29.74 1007 0.75 1.207005 0 0
11:55 am 11:55 Cloudy with Mist and Fog 52 11.1 51 10.6 97 97 SSE 16 26 29.71 1006 1 1.60934 0 0
12:15 pm 12:15 Cloudy with Mist and Fog 53 11.6 52 11.1 97 97 SSE 18 30 29.71 1006 1.5 2.41401 0 0
12:35 pm 12:35 Cloudy with Mist and Fog 54 12.3 53 11.7 96 96 SSE 18 30 29.71 1006 2.5 4.02335 0 0
12:55 pm 12:55 Cloudy with Mist and Fog 56 13.1 54 12.4 96 96 SSE 16 26 29.65 1004 3 4.82802 0 0
1:15 pm 13:15 Cloudy with Mist and Fog 58 14.6 56 13.1 91 91 SSE 15 24 29.65 1004 5 8.0467 0 0
1:35 pm 13:35 Cloudy with Haze 61 16 56 13.3 84 84 SSE 17 28 29.62 1003 5 8.0467 0 0
1:55 pm 13:55 Cloudy 63 17.2 56 13.4 78 78 S 20 31 29.59 1002 7 11.26538 0 0
2:15 pm 14:15 Cloudy 66 18.9 56 13.5 71 71 S 18 30 29.56 1001 10 16.0934 0 0
2:35 pm 14:35 Cloudy 70 21.2 56 13.5 62 62 S 21 33 29.53 1000 10 16.0934 0 0
2:55 pm 14:55 Mostly Cloudy 71 21.8 56 13.1 58 58 S 26 43 29.53 1000 10 16.0934 0 0
3:15 pm 15:15 Partly Cloudy 71 21.7 56 13.1 58 58 SSE 26 43 29.5 999 10 16.0934 0 0
3:35 pm 15:35 Sunny 73 23 56 13.1 54 54 S 24 39 29.47 998 10 16.0934 0 0
3:55 pm 15:55 Partly Cloudy 76 24.2 55 12.7 49 49 S 26 43 29.47 998 10 16.0934 0 0
4:15 pm 16:15 Partly Cloudy 76 24.7 54 12.2 46 46 S 22 35 29.47 998 10 16.0934 0 0
4:35 pm 16:35 Sunny 77 25.1 54 12 44 44 S 26 43 29.44 997 10 16.0934 0 0
4:55 pm 16:55 Sunny 78 25.5 53 11.7 42 42 S 23 37 29.44 997 10 16.0934 0 0
5:15 pm 17:15 Sunny 78 25.8 52 11.3 40 40 S 28 44 29.44 997 10 16.0934 0 0
5:35 pm 17:35 Sunny 77 25.1 52 11.2 42 42 S 24 39 29.41 996 10 16.0934 0 0
5:55 pm 17:55 Sunny 77 25.1 51 10.4 40 40 S 26 43 29.41 996 10 16.0934 0 0
6:15 pm 18:15 Sunny 78 25.6 53 11.4 41 41 S 18 30 29.41 996 10 16.0934 0 0
6:35 pm 18:35 Sunny 79 26.1 51 10.8 38 38 SSE 20 31 29.35 994 10 16.0934 0 0
6:55 pm 18:55 Sunny 80 26.5 48 8.7 33 33 S 25 41 29.35 994 7 11.26538 0 0
7:15 pm 19:15 Mostly Cloudy 79 26.2 47 8.1 32 32 SSE 17 28 29.35 994 7 11.26538 0 0
7:35 pm 19:35 Cloudy 76 24.5 51 10.6 42 42 SSE 24 39 29.38 995 10 16.0934 0 0
7:55 pm 19:55 Cloudy 76 24.7 48 8.7 36 36 SSE 25 41 29.38 995 10 16.0934 0 0
8:15 pm 20:15 Partly Cloudy 76 24.2 48 8.8 38 38 SSE 24 39 29.38 995 10 16.0934 0 0
8:35 pm 20:35 Clear 75 23.7 48 8.8 39 39 S 29 46 29.41 996 10 16.0934 0 0
8:55 pm 20:55 Partly Cloudy 74 23.2 48 9 40 40 S 37 59 29.41 996 10 16.0934 0 0
9:15 pm 21:15 Partly Cloudy with Nearby Thunderstorms 74 23.6 47 8.2 37 37 SSW 44 70 29.47 998 5 8.0467 0 0
9:35 pm 21:35 Windy with Storms Likely 69 20.7 43 6.2 39 39 SSW 36 57 29.53 1000 4 6.43736 0 0
9:55 pm 21:55 Cloudy with Thunderstorms 60 15.8 52 11 73 73 SSW 31 50 29.71 1006 3 4.82802 0.03 0.762
10:15 pm 22:15 Cloudy 60 15.5 50 9.8 69 69 W 26 43 29.62 1003 7 11.26538 0.06 1.524
10:35 pm 22:35 Cloudy with Light Rain 64 17.5 47 8.4 55 55 SW 15 24 29.56 1001 10 16.0934 0.07 1.778
10:55 pm 22:55 Mostly Cloudy with Thunderstorms 61 16.2 49 9.5 65 65 SW 5 7 29.53 1000 10 16.0934 0.07 1.778
11:15 pm 23:15 Partly Cloudy with Nearby Thunderstorms 58 14.4 50 10.2 76 76 SE 8 13 29.56 1001 10 16.0934 0 0
11:35 pm 23:35 Partly Cloudy 59 15 50 9.9 72 72 SSW 35 56 29.62 1003 10 16.0934 0 0
11:55 pm 23:55 Partly Cloudy 61 16.2 51 10.6 70 70 SSW 29 46 29.59 1002 10 16.0934 0 0

Powered by AerisWeather